Regional Weather Roundup
Issued by NWS

Home | Current Version | Previous Version | Graphics & Text | Print | Product List | Glossary On
Versions: 1 2 3 4 5 6 7 8 9 10 11 12 13 14 15 16 17 18 19 20 21 22 23 24 25 26 27 28 29 30 31 32 33 34 35 36 37 38 39 40 41 42 43 44 45 46 47 48 49 50
000
ASUS45 KCYS 060410
RWRWY

WYOMING REGIONAL WEATHER ROUNDUP
NATIONAL WEATHER SERVICE CHEYENNE WY
900 PM MST FRI FEB 05 2016

NOTE:  "FAIR" INDICATES FEW OR NO CLOUDS BELOW 12,000 FEET
WITH NO SIGNIFICANT WEATHER AND/OR OBSTRUCTIONS TO VISIBILITY.

WYZ001-060500-
YELLOWSTONE NATIONAL PARK

CITY           SKY/WX    TMP DP  RH WIND       PRES   REMARKS
LK YELLOWSTONE   N/A     17  14  88 VRB3      30.40R
W YELLOWSTONE  NOT AVBL

$$
WYZ002>013-054>058-071-098>099-060500-
NORTHERN WYOMING

CITY           SKY/WX    TMP DP  RH WIND       PRES   REMARKS
JACKSON        FAIR       9   9 100 N7        30.43R WCI  -3
CODY           FAIR      37  16  41 W18G31    30.17S WCI  27
GREYBULL       FAIR      25  16  68 E3        30.24F
WORLAND        FAIR      23  14  68 CALM      30.24S
SHERIDAN       CLEAR     25  12  58 S5        30.10F WCI  19
BUFFALO        FAIR      28  11  48 SW8       30.13F WCI  20
GILLETTE       FAIR      27  13  55 SW16      30.15S WCI  15
HULETT         FAIR      30  18  59 SW9       30.15S WCI  22
NEWCASTLE      FAIR      21  14  73 NE3       30.20F

$$
WYZ014>020-022>026-101>103-060500-
CENTRAL WYOMING

CITY           SKY/WX    TMP DP  RH WIND       PRES   REMARKS
BIG PINEY      FAIR      16  10  77 N10       30.38S WCI   4
PINEDALE       FAIR      19  12  73 NW17      30.36F WCI   4
DUBOIS         FAIR      27  14  59 NW8G22    30.29F WCI  18
LANDER         FAIR      23  12  62 CALM      30.24S
RIVERTON       FAIR      19   9  65 SW13      30.24F WCI   6
CASPER         FAIR      23  14  68 SW22G38   30.24S WCI   8
DOUGLAS        FAIR      18  10  71 N8          N/A  WCI   8

$$
WYZ021-027>030-104>119-060500-
SOUTHERN WYOMING

CITY           SKY/WX    TMP DP  RH WIND       PRES   REMARKS
EVANSTON       CLOUDY    21  15  78 SW7       30.44S WCI  12
FORT BRIDGER   MOCLDY    23  18  80 W12G17    30.46R WCI  12
ROCK SPRINGS   FAIR      22  16  78 W29G40    30.36F WCI   4
DIXON          CLOUDY    18  12  77 W3        30.46S
RAWLINS        FAIR      21  13  71 SW17      30.34R WCI   7
SARATOGA       FAIR      10   3  72 S5        30.37S WCI   2
LARAMIE        FAIR      15   4  61 W9        30.27R WCI   3
CHEYENNE       FAIR      25   7  46 W25       30.23S WCI   9
TORRINGTON     FAIR      21  13  71 W6        30.24S WCI  13
PINE BLUFFS    FAIR      21  10  63 W9        30.26S WCI  11

$$



USA.gov is the U.S. government's official web portal to all federal, state and local government web resources and services.